ELY578 LROP-LLBG

Flight info

Callsign ELY578
Flight time 2h 0m
Altitude 23000
Route IDARU1K/08L IDARU DCT EFJAS DCT MAXOV/N0470F390 DCT MATEL L620 RIXEN UG1 IST UT35 AYT UA16 TOMBI DCT IDAKU L35 PIKOG L609 ZUKKO
Aircraft B772/H-VGDW/C

Departure

Time 2026-05-01 07:46
Airport Bucharest Henri Coandă International Airport (LROP)

Arrival

Time 2026-05-01 09:47
Airport Ben Gurion International Airport (LLBG)
Time Latitude Longitude Altitude Speed Heading
2026-05-01 07:23 44.57037 26.08261 328 ft 0 kts 309°
2026-05-01 07:39 44.57011 26.08313 328 ft 4 kts 297°
2026-05-01 07:40 44.57001 26.08347 328 ft 4 kts 279°
2026-05-01 07:40 44.57000 26.08377 328 ft 4 kts 240°
2026-05-01 07:40 44.57004 26.08388 328 ft 3 kts 178°
2026-05-01 07:40 44.57006 26.08388 328 ft 0 kts 174°
2026-05-01 07:42 44.57004 26.08388 328 ft 3 kts 174°
2026-05-01 07:43 44.56929 26.08402 328 ft 11 kts 160°
2026-05-01 07:43 44.56901 26.08492 328 ft 12 kts 78°
2026-05-01 07:43 44.57052 26.08530 328 ft 15 kts 353°
2026-05-01 07:44 44.57376 26.08483 328 ft 20 kts 354°
2026-05-01 07:44 44.57569 26.08454 328 ft 13 kts 354°
2026-05-01 07:45 44.57646 26.08447 328 ft 9 kts 12°
2026-05-01 07:45 44.57664 26.08467 328 ft 2 kts 72°
2026-05-01 07:45 44.57670 26.08514 328 ft 14 kts 83°
2026-05-01 07:45 44.57702 26.08936 328 ft 80 kts 84°
2026-05-01 07:46 44.57786 26.10045 331 ft 146 kts 84°
2026-05-01 07:46 44.57903 26.11595 853 ft 163 kts 84°
2026-05-01 07:46 44.58078 26.14737 2625 ft 162 kts 84°
2026-05-01 07:47 44.58143 26.16307 3260 ft 162 kts 83°
2026-05-01 07:47 44.58175 26.17882 3862 ft 166 kts 90°
2026-05-01 07:47 44.57858 26.19558 4185 ft 192 kts 108°
2026-05-01 07:47 44.57159 26.21276 4447 ft 213 kts 116°
2026-05-01 07:48 44.55503 26.25226 5137 ft 250 kts 116°
2026-05-01 07:48 44.54611 26.27358 5784 ft 256 kts 116°
2026-05-01 07:48 44.53714 26.29488 6500 ft 259 kts 116°
2026-05-01 07:49 44.52785 26.31706 7130 ft 264 kts 116°
2026-05-01 07:49 44.50914 26.36146 8472 ft 270 kts 116°
2026-05-01 07:49 44.49939 26.38451 9108 ft 274 kts 116°
2026-05-01 07:50 44.48947 26.40809 9505 ft 288 kts 117°
2026-05-01 07:50 44.46795 26.45898 10156 ft 320 kts 118°
2026-05-01 07:50 44.45633 26.48646 10619 ft 334 kts 118°
2026-05-01 07:51 44.44431 26.51485 11245 ft 345 kts 119°
2026-05-01 07:51 44.43187 26.54420 12039 ft 353 kts 119°
2026-05-01 07:51 44.41924 26.57397 12985 ft 360 kts 120°
2026-05-01 07:52 44.39328 26.63503 14863 ft 371 kts 120°
2026-05-01 07:52 44.37997 26.66631 15744 ft 377 kts 120°
2026-05-01 07:52 44.36642 26.69809 16590 ft 384 kts 120°
2026-05-01 07:53 44.33863 26.76318 18191 ft 396 kts 121°
2026-05-01 07:53 44.32442 26.79640 18983 ft 401 kts 121°
2026-05-01 07:53 44.31002 26.83002 19710 ft 407 kts 121°
2026-05-01 07:53 44.29558 26.86373 20429 ft 413 kts 122°
2026-05-01 07:54 44.26548 26.93379 21800 ft 425 kts 122°
2026-05-01 07:55 44.21828 27.04115 23724 ft 438 kts 128°
2026-05-01 07:55 44.17508 27.10116 24972 ft 440 kts 147°
2026-05-01 07:56 44.10564 27.16144 26546 ft 446 kts 154°
2026-05-01 07:56 44.04293 27.21289 27843 ft 454 kts 154°
2026-05-01 07:57 44.01563 27.23526 28373 ft 458 kts 154°
2026-05-01 07:57 43.96943 27.27314 29302 ft 461 kts 155°
2026-05-01 07:58 43.91390 27.31854 30225 ft 467 kts 156°
2026-05-01 07:58 43.85773 27.36440 30952 ft 475 kts 156°
2026-05-01 07:59 43.80033 27.41118 31692 ft 482 kts 156°
2026-05-01 07:59 43.74206 27.45855 32299 ft 489 kts 155°
2026-05-01 08:00 43.62380 27.55437 33742 ft 494 kts 155°
2026-05-01 08:01 43.53468 27.62629 34870 ft 495 kts 155°
2026-05-01 08:01 43.50495 27.65022 35239 ft 496 kts 155°
2026-05-01 08:01 43.47518 27.67416 35616 ft 496 kts 155°
2026-05-01 08:02 43.41557 27.72202 36326 ft 496 kts 155°
2026-05-01 08:02 43.38575 27.74591 36654 ft 497 kts 154°
2026-05-01 08:03 43.32602 27.79371 37300 ft 497 kts 154°
2026-05-01 08:03 43.29618 27.81754 37636 ft 497 kts 154°
2026-05-01 08:03 43.23641 27.86519 38255 ft 497 kts 154°
2026-05-01 08:04 43.17655 27.91281 38812 ft 498 kts 154°
2026-05-01 08:04 43.11661 27.96038 39275 ft 499 kts 154°
2026-05-01 08:05 43.02583 28.03222 39289 ft 504 kts 154°
2026-05-01 08:06 42.93506 28.10381 39287 ft 501 kts 154°
2026-05-01 08:07 42.81435 28.19864 39285 ft 501 kts 154°
2026-05-01 08:08 42.72375 28.26953 39284 ft 500 kts 154°
2026-05-01 08:09 42.60302 28.36363 39281 ft 500 kts 154°
2026-05-01 08:09 42.54261 28.41055 39279 ft 500 kts 154°
2026-05-01 08:10 42.42181 28.50409 39251 ft 500 kts 155°
2026-05-01 08:11 42.30109 28.59795 39241 ft 500 kts 155°
2026-05-01 08:12 42.21049 28.66764 39240 ft 499 kts 155°
2026-05-01 08:13 42.11997 28.73704 39232 ft 499 kts 155°
2026-05-01 08:13 42.02338 28.77665 39227 ft 483 kts 183°
2026-05-01 08:14 41.95663 28.77484 39222 ft 476 kts 186°
2026-05-01 08:14 41.89080 28.77330 39217 ft 473 kts 185°
2026-05-01 08:15 41.79183 28.77751 39214 ft 475 kts 183°
2026-05-01 08:16 41.72571 28.78010 39211 ft 476 kts 183°
2026-05-01 08:16 41.65962 28.78268 39208 ft 475 kts 183°
2026-05-01 08:17 41.59350 28.78524 39206 ft 475 kts 183°
2026-05-01 08:17 41.52746 28.78780 39204 ft 475 kts 183°
2026-05-01 08:18 41.46148 28.79036 39202 ft 475 kts 183°
2026-05-01 08:19 41.32948 28.79548 39201 ft 474 kts 184°
2026-05-01 08:19 41.26353 28.79803 39200 ft 473 kts 184°
2026-05-01 08:20 41.19784 28.80066 39200 ft 473 kts 183°
2026-05-01 08:20 41.13206 28.80349 39200 ft 473 kts 183°
2026-05-01 08:21 41.06637 28.80627 39200 ft 472 kts 183°
2026-05-01 08:21 41.00059 28.80905 39200 ft 472 kts 183°
2026-05-01 08:22 40.93543 28.82188 39202 ft 479 kts 168°
2026-05-01 08:22 40.87295 28.85494 39200 ft 487 kts 161°
2026-05-01 08:23 40.81091 28.89155 39195 ft 489 kts 162°
2026-05-01 08:23 40.74820 28.92650 39189 ft 489 kts 163°
2026-05-01 08:24 40.68542 28.96064 39184 ft 488 kts 163°
2026-05-01 08:24 40.62269 28.99471 39179 ft 487 kts 162°
2026-05-01 08:25 40.56011 29.02880 39175 ft 487 kts 163°
2026-05-01 08:25 40.49743 29.06271 39171 ft 487 kts 163°
2026-05-01 08:26 40.43487 29.09643 39166 ft 486 kts 163°
2026-05-01 08:26 40.37223 29.13010 39161 ft 486 kts 163°
2026-05-01 08:27 40.30972 29.16364 39157 ft 485 kts 163°
2026-05-01 08:27 40.24728 29.19708 39153 ft 485 kts 163°
2026-05-01 08:28 40.18488 29.23053 39143 ft 485 kts 163°
2026-05-01 08:28 40.12245 29.26393 39142 ft 485 kts 163°
2026-05-01 08:29 40.05996 29.29713 39141 ft 484 kts 163°
2026-05-01 08:29 39.99796 29.32999 39139 ft 484 kts 163°
2026-05-01 08:30 39.93553 29.36303 39137 ft 485 kts 163°
2026-05-01 08:30 39.87316 29.39652 39135 ft 485 kts 162°
2026-05-01 08:31 39.81108 29.43104 39125 ft 485 kts 162°
2026-05-01 08:31 39.74880 29.46524 39123 ft 485 kts 162°
2026-05-01 08:32 39.68665 29.49927 39117 ft 485 kts 162°
2026-05-01 08:32 39.62433 29.53327 39110 ft 485 kts 163°
2026-05-01 08:33 39.56149 29.56465 39103 ft 484 kts 165°
2026-05-01 08:33 39.49855 29.59547 39076 ft 484 kts 164°
2026-05-01 08:34 39.43606 29.62638 39068 ft 484 kts 164°
2026-05-01 08:34 39.37266 29.65780 39062 ft 485 kts 164°
2026-05-01 08:35 39.30973 29.68901 39056 ft 485 kts 164°
2026-05-01 08:35 39.24711 29.72025 39050 ft 486 kts 164°
2026-05-01 08:36 39.18365 29.75172 39045 ft 486 kts 163°
2026-05-01 08:36 39.12089 29.78286 39041 ft 486 kts 164°
2026-05-01 08:37 39.05721 29.81418 39037 ft 487 kts 164°
2026-05-01 08:37 38.99432 29.84503 39034 ft 488 kts 164°
2026-05-01 08:38 38.93088 29.87611 39031 ft 488 kts 164°
2026-05-01 08:38 38.86735 29.90712 39028 ft 488 kts 164°
2026-05-01 08:39 38.80353 29.93729 39026 ft 489 kts 164°
2026-05-01 08:39 38.73968 29.96749 39024 ft 489 kts 164°
2026-05-01 08:40 38.64377 30.01285 39016 ft 490 kts 164°
2026-05-01 08:40 38.57998 30.04333 39008 ft 489 kts 164°
2026-05-01 08:41 38.51602 30.07352 39005 ft 490 kts 164°
2026-05-01 08:41 38.45204 30.10360 39001 ft 490 kts 164°
2026-05-01 08:42 38.38795 30.13368 38996 ft 491 kts 164°
2026-05-01 08:42 38.32381 30.16375 38992 ft 491 kts 164°
2026-05-01 08:43 38.27037 30.18818 38988 ft 491 kts 165°
2026-05-01 08:43 38.20610 30.21777 38983 ft 491 kts 164°
2026-05-01 08:44 38.14181 30.24728 38978 ft 491 kts 164°
2026-05-01 08:44 38.07747 30.27672 38974 ft 491 kts 165°
2026-05-01 08:45 38.01314 30.30611 38970 ft 491 kts 164°
2026-05-01 08:45 37.94873 30.33530 38966 ft 492 kts 165°
2026-05-01 08:46 37.88431 30.36437 38965 ft 491 kts 165°
2026-05-01 08:46 37.81987 30.39341 38964 ft 492 kts 165°
2026-05-01 08:47 37.75536 30.42244 38965 ft 492 kts 165°
2026-05-01 08:47 37.69093 30.45139 38965 ft 492 kts 165°
2026-05-01 08:48 37.62651 30.48055 38965 ft 492 kts 165°
2026-05-01 08:48 37.56209 30.50953 38965 ft 491 kts 165°
2026-05-01 08:49 37.49762 30.53843 38966 ft 492 kts 165°
2026-05-01 08:49 37.43316 30.56726 38966 ft 492 kts 165°
2026-05-01 08:50 37.36873 30.59601 38966 ft 491 kts 165°
2026-05-01 08:50 37.30428 30.62472 38966 ft 491 kts 165°
2026-05-01 08:51 37.23979 30.65339 38965 ft 491 kts 165°
2026-05-01 08:51 37.17535 30.68215 38965 ft 492 kts 165°
2026-05-01 08:52 37.11133 30.71050 38965 ft 492 kts 165°
2026-05-01 08:52 37.04676 30.73900 38964 ft 492 kts 165°
2026-05-01 08:53 36.98222 30.76745 38964 ft 492 kts 165°
2026-05-01 08:53 36.91705 30.79266 38964 ft 487 kts 174°
2026-05-01 08:54 36.85001 30.79950 38966 ft 481 kts 184°
2026-05-01 08:54 36.78327 30.79984 38965 ft 478 kts 185°
2026-05-01 08:55 36.71678 30.80159 38965 ft 478 kts 184°
2026-05-01 08:55 36.65025 30.80386 38966 ft 479 kts 184°
2026-05-01 08:56 36.58376 30.80614 38966 ft 479 kts 184°
2026-05-01 08:56 36.51703 30.80843 38967 ft 479 kts 184°
2026-05-01 08:57 36.45039 30.81071 38968 ft 479 kts 184°
2026-05-01 08:57 36.38378 30.81297 38969 ft 479 kts 184°
2026-05-01 08:58 36.31713 30.81520 38970 ft 479 kts 184°
2026-05-01 08:58 36.25095 30.81741 38973 ft 479 kts 184°
2026-05-01 08:59 36.18387 30.81964 38975 ft 479 kts 184°
2026-05-01 08:59 36.11724 30.82186 38976 ft 479 kts 184°
2026-05-01 09:00 36.05119 30.82701 38978 ft 483 kts 174°
2026-05-01 09:00 36.01882 30.83903 38970 ft 491 kts 162°
2026-05-01 09:00 35.98920 30.86054 38980 ft 500 kts 148°
2026-05-01 09:01 35.93696 30.91860 38978 ft 509 kts 141°
2026-05-01 09:01 35.88381 30.97711 38981 ft 514 kts 144°
2026-05-01 09:02 35.82855 31.03305 38982 ft 513 kts 146°
2026-05-01 09:02 35.77274 31.08756 38983 ft 511 kts 146°
2026-05-01 09:03 35.71724 31.14230 38984 ft 511 kts 146°
2026-05-01 09:03 35.66169 31.19683 38985 ft 511 kts 146°
2026-05-01 09:04 35.60602 31.25126 38986 ft 511 kts 146°
2026-05-01 09:04 35.55031 31.30558 38987 ft 511 kts 146°
2026-05-01 09:05 35.49461 31.35979 38978 ft 511 kts 146°
2026-05-01 09:05 35.43883 31.41396 38977 ft 511 kts 146°
2026-05-01 09:06 35.38297 31.46811 38977 ft 512 kts 146°
2026-05-01 09:06 35.32715 31.52212 38976 ft 512 kts 146°
2026-05-01 09:07 35.27124 31.57609 38975 ft 512 kts 146°
2026-05-01 09:07 35.21537 31.62998 38974 ft 512 kts 147°
2026-05-01 09:08 35.15939 31.68387 38973 ft 512 kts 147°
2026-05-01 09:08 35.10337 31.73768 38972 ft 513 kts 147°
2026-05-01 09:09 35.04757 31.79119 38971 ft 513 kts 147°
2026-05-01 09:09 34.99137 31.84499 38970 ft 514 kts 147°
2026-05-01 09:10 34.93510 31.89876 38969 ft 514 kts 147°
2026-05-01 09:10 34.87877 31.95249 38968 ft 515 kts 147°
2026-05-01 09:11 34.82229 32.00627 38967 ft 515 kts 147°
2026-05-01 09:11 34.76571 32.06004 38965 ft 515 kts 147°
2026-05-01 09:12 34.70918 32.11367 38965 ft 516 kts 147°
2026-05-01 09:12 34.65260 32.16726 38965 ft 516 kts 147°
2026-05-01 09:13 34.59594 32.22082 38965 ft 517 kts 147°
2026-05-01 09:13 34.53919 32.27437 38965 ft 517 kts 147°
2026-05-01 09:14 34.48240 32.32787 38965 ft 517 kts 147°
2026-05-01 09:14 34.42547 32.38141 38965 ft 517 kts 147°
2026-05-01 09:15 34.36854 32.43485 38966 ft 519 kts 147°
2026-05-01 09:15 34.31135 32.48869 38965 ft 522 kts 146°
2026-05-01 09:16 34.25427 32.54213 38965 ft 523 kts 147°
2026-05-01 09:17 34.16809 32.62238 38965 ft 520 kts 147°
2026-05-01 09:17 34.08203 32.70221 38966 ft 519 kts 148°
2026-05-01 09:18 33.99100 32.77187 38966 ft 515 kts 154°
2026-05-01 09:19 33.89886 32.83831 38967 ft 515 kts 154°
2026-05-01 09:20 33.80717 32.90590 38967 ft 515 kts 154°
2026-05-01 09:20 33.74631 32.95118 38573 ft 513 kts 154°
2026-05-01 09:21 33.68552 32.99630 37110 ft 514 kts 153°
2026-05-01 09:21 33.65512 33.01879 36390 ft 514 kts 153°
2026-05-01 09:21 33.59428 33.06369 35008 ft 511 kts 153°
2026-05-01 09:22 33.53414 33.10799 33891 ft 503 kts 153°
2026-05-01 09:22 33.47499 33.15148 32827 ft 494 kts 153°
2026-05-01 09:23 33.44586 33.17288 32304 ft 490 kts 153°
2026-05-01 09:23 33.38827 33.21513 31269 ft 481 kts 153°
2026-05-01 09:24 33.33179 33.25650 30245 ft 471 kts 153°
2026-05-01 09:24 33.30392 33.27689 29727 ft 467 kts 153°
2026-05-01 09:24 33.24890 33.31709 28624 ft 461 kts 153°
2026-05-01 09:25 33.19458 33.35672 27520 ft 454 kts 153°
2026-05-01 09:25 33.14110 33.39570 26433 ft 447 kts 153°
2026-05-01 09:26 33.11465 33.41495 25897 ft 444 kts 153°
2026-05-01 09:26 33.06237 33.45317 24822 ft 437 kts 153°
2026-05-01 09:26 33.03650 33.47197 24292 ft 434 kts 153°
2026-05-01 09:27 32.98552 33.50957 23139 ft 433 kts 150°
2026-05-01 09:27 32.96138 33.53162 22659 ft 440 kts 144°
2026-05-01 09:27 32.93950 33.55666 22323 ft 442 kts 138°
2026-05-01 09:28 32.91834 33.58377 22037 ft 441 kts 136°
2026-05-01 09:28 32.89819 33.61067 21737 ft 440 kts 135°
2026-05-01 09:28 32.87795 33.63853 21458 ft 438 kts 134°
2026-05-01 09:28 32.85856 33.66574 21179 ft 436 kts 134°
2026-05-01 09:29 32.81939 33.72096 20306 ft 431 kts 134°
2026-05-01 09:29 32.80661 33.73898 19936 ft 429 kts 134°
2026-05-01 09:30 32.76237 33.80123 18603 ft 420 kts 133°
2026-05-01 09:30 32.74358 33.82766 18031 ft 417 kts 133°
2026-05-01 09:30 32.70637 33.87979 16884 ft 410 kts 133°
2026-05-01 09:31 32.69399 33.89718 16499 ft 408 kts 133°
2026-05-01 09:31 32.67575 33.92279 15935 ft 404 kts 133°
2026-05-01 09:31 32.63969 33.97329 14823 ft 397 kts 133°
2026-05-01 09:32 32.62190 33.99818 14295 ft 393 kts 133°
2026-05-01 09:32 32.58698 34.04721 13235 ft 385 kts 132°
2026-05-01 09:32 32.56986 34.07146 12765 ft 381 kts 132°
2026-05-01 09:33 32.55288 34.09530 12480 ft 378 kts 132°
2026-05-01 09:33 32.53591 34.11900 12242 ft 373 kts 132°
2026-05-01 09:33 32.50279 34.16512 11703 ft 368 kts 132°
2026-05-01 09:34 32.48602 34.18845 11384 ft 366 kts 132°
2026-05-01 09:34 32.46951 34.21141 11061 ft 365 kts 132°
2026-05-01 09:34 32.43676 34.25693 10425 ft 362 kts 132°
2026-05-01 09:35 32.42081 34.27937 9927 ft 359 kts 130°
2026-05-01 09:35 32.39703 34.33048 8966 ft 350 kts 115°
2026-05-01 09:35 32.38721 34.35656 8809 ft 351 kts 113°
2026-05-01 09:36 32.37906 34.38421 8676 ft 357 kts 107°
2026-05-01 09:36 32.37347 34.41269 8540 ft 355 kts 102°
2026-05-01 09:36 32.36906 34.44146 8401 ft 355 kts 101°
2026-05-01 09:36 32.36455 34.47003 8263 ft 354 kts 102°
2026-05-01 09:37 32.35949 34.49789 8123 ft 353 kts 104°
2026-05-01 09:37 32.34443 34.55257 7715 ft 343 kts 112°
2026-05-01 09:37 32.33547 34.57824 7468 ft 333 kts 114°
2026-05-01 09:38 32.31723 34.62710 6985 ft 316 kts 114°
2026-05-01 09:38 32.30932 34.64872 6990 ft 301 kts 114°
2026-05-01 09:38 32.30117 34.67106 6847 ft 291 kts 114°
2026-05-01 09:39 32.28521 34.71488 6067 ft 291 kts 114°
2026-05-01 09:39 32.27733 34.73656 5895 ft 283 kts 114°
2026-05-01 09:39 32.26961 34.75769 5697 ft 276 kts 114°
2026-05-01 09:40 32.26210 34.77826 5500 ft 271 kts 114°
2026-05-01 09:40 32.24818 34.81956 5104 ft 269 kts 109°
2026-05-01 09:40 32.24283 34.84080 4906 ft 271 kts 106°
2026-05-01 09:41 32.23780 34.86214 4710 ft 268 kts 106°
2026-05-01 09:41 32.22713 34.90425 4311 ft 267 kts 108°
2026-05-01 09:41 32.22174 34.92497 4118 ft 261 kts 108°
2026-05-01 09:42 32.21637 34.94366 3947 ft 255 kts 113°
2026-05-01 09:42 32.20866 34.96222 3788 ft 249 kts 119°
2026-05-01 09:42 32.18742 34.99127 3163 ft 224 kts 158°
2026-05-01 09:43 32.15937 34.98926 2947 ft 197 kts 201°
2026-05-01 09:43 32.14699 34.98312 2816 ft 190 kts 206°
2026-05-01 09:43 32.13506 34.97606 2689 ft 193 kts 209°
2026-05-01 09:44 32.11151 34.96079 2246 ft 198 kts 211°
2026-05-01 09:44 32.09948 34.95297 1981 ft 194 kts 211°
2026-05-01 09:44 32.08811 34.94559 1746 ft 179 kts 211°
2026-05-01 09:45 32.07763 34.93880 1495 ft 165 kts 212°
2026-05-01 09:45 32.05962 34.92713 1095 ft 138 kts 212°
2026-05-01 09:45 32.05133 34.92174 894 ft 136 kts 212°
2026-05-01 09:46 32.04318 34.91641 714 ft 132 kts 211°
2026-05-01 09:46 32.03511 34.91120 550 ft 133 kts 210°
2026-05-01 09:46 32.02696 34.90596 389 ft 133 kts 209°
2026-05-01 09:46 32.01887 34.90071 211 ft 133 kts 208°
2026-05-01 09:47 32.01111 34.89569 151 ft 113 kts 209°
2026-05-01 09:47 32.00548 34.89206 149 ft 67 kts 208°
2026-05-01 09:47 32.00282 34.89026 149 ft 30 kts 218°
2026-05-01 09:47 32.00167 34.88882 149 ft 19 kts 235°
2026-05-01 09:48 32.00096 34.88752 149 ft 19 kts 238°
2026-05-01 09:48 32.00084 34.88665 149 ft 13 kts 294°
2026-05-01 09:48 32.00154 34.88528 149 ft 20 kts 302°
2026-05-01 09:48 32.00234 34.88377 149 ft 26 kts 302°
2026-05-01 09:49 32.00324 34.88204 149 ft 23 kts 301°
2026-05-01 09:49 32.00404 34.88049 149 ft 21 kts 301°
2026-05-01 09:49 32.00471 34.87922 149 ft 17 kts 301°
2026-05-01 09:49 32.00530 34.87808 149 ft 16 kts 301°
2026-05-01 09:50 32.00568 34.87725 149 ft 7 kts 274°
2026-05-01 09:50 32.00543 34.87689 149 ft 5 kts 186°
2026-05-01 09:50 32.00506 34.87693 149 ft 5 kts 167°
2026-05-01 09:50 32.00472 34.87692 149 ft 5 kts 212°
2026-05-01 09:51 32.00451 34.87662 149 ft 5 kts 237°
2026-05-01 09:51 32.00434 34.87632 149 ft 4 kts 236°
2026-05-01 09:51 32.00428 34.87622 149 ft 1 kts 237°